Location: Asheville, NC
(35.6000°N, 82.5500°W)
Time: 00:26:57
(UTC-04:00)

Vanguard 2 Rocket - Pass Details

Date: 16 March 2018
Orbit: 553 x 3328 km, 32.9° (Epoch: 24 June)

Event Time Altitude Azimuth Distance (km) Brightness Sun altitude
Rises 20:08:33 0° 269° (W) 2,749 12.0 -6.9°
Reaches altitude 10° 20:10:33 10° 266° (W) 1,930 10.3 -7.3°
Maximum altitude 20:14:43 60° 185° (S) 826 6.7 -8.2°
Enters shadow 20:20:47 10° 107° (ESE) 2,786 8.7 -9.4°
